#timestamp,LO_Frequency,Hit,StdDev 
1594753215.5,286047006.6,N
1594753235.3,286047008.9,Y
1594753255.1,286047003.1,P
1594753275.9,286047005.6,P
1594753295.7,286047003.0,N
1594753315.6,286047005.0,Y
1594753335.4,286046999.9,P
1594753355.2,286047001.5,N
1594753375.1,286047003.1,N
1594753376.0,286047003.1,N
1594753395.8,286047003.4,N
1594753415.7,286047004.7,Y
1594753435.5,286047004.2,P
1594753455.3,286047004.1,P
1594753475.2,286047003.0,P
1594753495.0,286047005.4,Y
1594753495.9,286047005.4,P
1594753515.7,286047000.1,N
1594753535.6,286047002.8,N
1594753555.4,286047001.5,N
1594753575.3,286047001.8,N
1594753595.1,286047001.4,N
1594753596.0,286047001.4,N
1594753615.8,286047002.4,N
1594753635.7,286047000.1,N
1594753655.5,286046999.8,N
1594753675.3,286047001.7,N
1594753695.2,286047003.4,N
1594753715.0,286047004.0,N
1594753715.9,286047004.0,N
1594753735.8,286047001.3,N
1594753755.6,286047003.6,N
1594753775.4,286047005.4,Y
1594753795.3,286047004.4,P
1594753815.1,286047002.1,N
1594753835.9,286047004.4,P
1594753855.7,286047002.0,N
1594753875.5,286047002.2,N
1594753895.4,286047001.4,N
1594753915.2,286047004.1,Y
1594753935.0,286047000.3,P
1594753935.9,286047000.3,N
1594753955.8,286046999.7,N
1594753975.6,286047000.1,N
1594753995.5,286047003.9,Y
1594754015.3,286047004.4,P
1594754035.1,286047004.1,N
1594754055.9,286047003.3,N
1594754075.7,286047003.2,N
1594754095.6,286047005.6,Y
1594754115.4,286047000.4,P
1594754135.2,286047000.9,N
1594754185.1,286047003.3,E
1594754195.0,286047001.5,N
1594754195.9,286047001.5,P
1594754215.8,286047002.6,P
1594754235.6,286046999.8,N
1594754255.4,286046999.9,N
1594754275.3,286047002.7,N
1594754295.1,286047001.4,N
1594754315.8,286047004.0,Y
1594754335.7,286047002.1,P
1594754355.5,286047003.8,P
1594754375.4,286047003.0,N
1594754395.2,286047004.8,Y
1594754415.0,286047003.9,P
1594754415.9,286047003.9,P
1594754435.8,286047001.8,N
1594754455.6,286047001.5,N
1594754475.5,286047006.0,Y
1594754495.3,286047002.6,P
1594754515.1,286046999.9,N
1594754535.9,286047002.3,N
1594754555.7,286047001.9,N
1594754575.5,286047004.3,Y
1594754595.4,286047004.0,P
1594754615.2,286047003.9,P
1594754635.1,286047002.1,N
1594754636.0,286047002.1,N
1594754655.8,286047002.6,N
1594754675.6,286047003.8,Y
1594754695.5,286047002.2,P
1594754715.3,286047003.0,P
1594754735.1,286047005.1,P
1594754755.9,286047005.1,Y
1594754775.7,286047003.3,P
1594754795.6,286047001.9,P
1594754815.4,286047001.6,N
1594754835.2,286047001.4,N
1594754855.1,286047005.9,Y
1594754856.0,286047005.9,P
1594754875.8,286047001.6,N
1594754895.7,286047001.6,N
1594754915.5,286047002.4,N
1594754935.3,286047002.5,N
1594754955.2,286047001.9,N
1594754975.9,286047001.6,N
1594754995.7,286047002.5,N
1594755015.6,286047002.3,N
1594755035.4,286047004.0,Y
1594755055.3,286047002.0,P
1594755075.1,286047001.5,P
1594755076.0,286047001.5,P
1594755095.8,286047001.4,Y
1594755115.7,286047000.1,P
1594755135.5,286047000.3,N
1594755155.3,286047001.0,N
1594755175.2,286047002.3,Y
1594755195.0,286047002.7,P
1594755195.9,286047002.7,N
1594755215.8,286047003.5,P
1594755235.6,286047005.2,Y
1594755255.4,286047003.6,P
1594755275.3,286047001.7,N
1594755295.1,286047002.0,N
1594755315.9,286047001.7,N
1594755335.7,286047003.4,Y
1594755355.5,286047002.7,P
1594755375.4,286046999.7,N
1594755395.2,286047002.4,N
1594755415.0,286047002.5,N
1594755415.9,286047002.5,N
1594755435.8,286047002.1,N
1594755455.6,286047003.3,Y
1594755475.5,286047001.4,P
1594755495.3,286047005.9,P
1594755515.1,286047005.2,N
1594755535.9,286047007.0,Y
1594755555.7,286047005.2,P
1594755575.5,286047007.2,P
1594755595.4,286047005.4,P
1594755615.2,286047003.4,N
1594755635.1,286047004.8,Y
1594755636.0,286047004.8,P
1594755655.8,286047000.2,N
1594755675.6,286047002.1,N
1594755695.5,286047004.4,N
1594755715.3,286047003.8,N
1594755735.2,286047003.5,N
1594755755.9,286047004.1,N
1594755775.7,286047004.6,Y
1594755795.6,286047001.4,P
1594755815.4,286047003.6,P
1594755835.2,286047004.9,P
1594755855.1,286047004.6,Y
1594755856.0,286047004.6,P
1594755875.8,286047003.6,P
1594755895.7,286047003.9,P
1594755915.5,286047001.8,Y
1594755935.4,286046999.5,P
1594755955.2,286046999.2,N
1594755975.0,286046999.1,N
1594755975.9,286046999.1,N
1594755995.8,286046999.0,N
1594756015.6,286046999.2,N
1594756035.4,286046996.5,N
1594756055.3,286046999.1,N
1594756075.1,286046999.3,N
1594756095.9,286047000.8,N
1594756115.7,286047000.9,N
1594756135.5,286047001.1,N
1594756155.4,286047000.5,N
1594756175.2,286047002.2,N
1594756195.0,286047004.0,N
1594756195.9,286047004.0,N
1594756215.8,286047004.4,N
1594756235.6,286047003.8,N
1594756255.5,286047006.0,N
1594756275.3,286047005.4,N
1594756295.1,286047004.5,N
1594756315.9,286047006.2,N
1594756335.7,286047008.9,Y
1594756355.6,286047008.3,P
1594756375.4,286047010.4,P
1594756395.2,286047010.1,N
1594756415.1,286047009.6,N
1594756416.0,286047009.6,N
1594756435.8,286047009.6,Y
1594756455.6,286047002.6,P
1594756475.5,286047001.8,N
1594756495.3,286047002.6,N
1594756515.2,286047002.7,N
1594756535.9,286047002.4,N
1594756555.7,286047002.4,N
1594756575.6,286047002.0,N
1594756595.4,286047001.9,N
1594756615.2,286047005.9,Y
1594756635.1,286047001.3,P
1594756636.0,286047001.3,N
1594756655.8,286047011.9,P
1594756675.7,286047005.6,N
1594756695.5,286047005.8,N
1594756715.3,286047004.7,N
1594756735.2,286047007.4,N
1594756755.0,286047007.3,N
1594756755.9,286047007.3,N
1594756775.7,286047007.4,N
1594756795.6,286047006.5,N
